Montana Department of Transportation

Main Content

Accidents and Incidents Report

Hourly Weather Roundup

ASUS45 KTFX 180710

RWRMT 

MONTANA REGIONAL WEATHER ROUNDUP

NATIONAL WEATHER SERVICE GREAT FALLS MT

100 AM MDT MON JUN 18 2018



NOTE: "FAIR" INDICATES FEW OR NO CLOUDS BELOW 12000 FEET WITH NO

SIGNIFICANT WEATHER AND/OR OBSTRUCTIONS TO VISIBILITY.



MTZ001.007-043-180800-

WEST OF THE DIVIDE

  

CITY           SKY/WX    TMP DP  RH WIND       PRES   REMARKS

KALISPELL      CLOUDY    60  45  57 NE6       30.01F                  

MISSOULA       CLOUDY    56  50  80 W5        29.97F                  

BUTTE          LGT RAIN  51  47  86 CALM      30.03F                  

MULLAN PASS    CLOUDY    48  26  42 VRB3      30.05S                  

DEER LODGE       N/A     54  48  82 N5        30.05S                  

HAMILTON         N/A     54  50  87 CALM      29.97F                  

LIBBY            N/A     52  45  76 CALM      30.00S                  

PLAINS           N/A     58  50  75 NW2       29.98                   

RONAN            N/A     61  46  59 W3        29.99S                  

--------------------------------



MTZ008-052.055-180800-

SOUTHWEST MONTANA

  

CITY           SKY/WX    TMP DP  RH WIND       PRES   REMARKS

BOZEMAN        CLOUDY    53  51  93 SW6       30.00S                  

DILLON         CLOUDY    49  48  97 NE15      29.96F                  

ENNIS          CLOUDY    50  50 100 NE7       30.02F                  

W YELLOWSTONE  LGT RAIN  48  48 100 CALM      30.04R                  

TWIN BRIDGES     N/A     52  46  79 N15       29.96                   

--------------------------------



MTZ009-010-012-014-046-048-049-054-180800-

EAST SLOPES AND CENTRAL MONTANA

  

CITY           SKY/WX    TMP DP  RH WIND       PRES   REMARKS

CUT BANK       CLOUDY    55  49  80 N3        30.13S                  

GREAT FALLS    CLOUDY    58  50  75 NE10      30.08F                  

HELENA         CLOUDY    56  51  84 CALM      30.02F                  

CHOTEAU          N/A     54  52  94 N6        30.12F                  

WHITE SULPHUR    N/A     50  48  93 NW5       30.05F FOG              

--------------------------------



MTZ011-013-016-021-045-047-050-051-180800-

NORTH CENTRAL MONTANA

  

CITY           SKY/WX    TMP DP  RH WIND       PRES   REMARKS

HAVRE          CLOUDY    61  51  70 E5        30.09S                  

LEWISTOWN      CLOUDY    54  50  86 E8        30.09F                  

N BAR RANCH    CLOUDY    52  50  93 SE3       30.16S                  

CHINOOK          N/A     63  52  67 CALM      30.09F                  

--------------------------------



MTZ017.020-022.027-061-062-180800-

NORTHEAST MONTANA

  

CITY           SKY/WX    TMP DP  RH WIND       PRES   REMARKS

GLASGOW        FAIR      61  52  72 E8        30.11R                  

GLENDIVE       FAIR      56  51  84 E6        30.14R                  

JORDAN           N/A     54  51  90 CALM      30.11S                  

MALTA          CLOUDY    61  54  77 NE5       30.09S                  

SIDNEY         FAIR      53  49  86 CALM      30.13R                  

WOLF POINT     FAIR      57  53  86 E3        30.12S                  

PLENTYWOOD       N/A     57  48  72 CALM      30.13R                  

POPLAR           N/A     55  48  76 E3        30.13S                  

SCOBEY           N/A     52  40  63 CALM      30.12S                  

--------------------------------



MTZ028.42-056.058-180800-

SOUTHCENTRAL AND SOUTHEAST MONTANA

  

CITY           SKY/WX    TMP DP  RH WIND       PRES   REMARKS

BAKER          FAIR      50  48  93 CALM      30.15S                  

BILLINGS       CLOUDY    58  52  80 E8        30.06F                  

LIVINGSTON     LGT RAIN  53  53 100 E18       30.03S                  

MILES CITY     FAIR      56  54  93 SE3       30.11S                  

BIG TIMBER       N/A     52  52 100 E6        30.09R FOG              

EKALAKA          N/A     51  47  86 SE6       30.11S                  

FORSYTH          N/A     55  55 100 E5        30.10R                  

LAUREL           N/A     57  52  82 NE14      30.06S--------------------------------



REGIONAL REPORTS...DAKOTAS

  

CITY           SKY/WX    TMP DP  RH WIND       PRES   REMARKS

WILLISTON      FAIR      52  49  89 N3        30.12R                  

MINOT          FAIR      57  53  86 W3        30.09R                  

DICKINSON      FAIR      53  49  86 NW3       30.12R                  

BEACH          FAIR      50  50 100 S3        30.18R                  

CROSBY         FAIR      54  54 100 CALM      30.13R                  

TIOGA          FAIR      50  50 100 CALM      30.14S                  

WATFORD CITY   FAIR      52  52 100 CALM      30.12R                  

BISMARCK       FAIR      53  51  93 CALM      30.10R                  

GRAND FORKS    FAIR      55  54  96 NW8       30.02R                  

FARGO          FAIR      63  56  78 N8        29.99F                  

BUFFALO SD       N/A     57  51  80 NE3       30.08R                  

RAPID CITY     LGT RAIN  55  54  96 N8        30.12F                  

--------------------------------



REGIONAL REPORTS...WYOMING/IDAHO/WASHINGTON

  

CITY           SKY/WX    TMP DP  RH WIND       PRES   REMARKS

GILLETTE       CLOUDY    53  51  93 NE6       30.11F                  

SHERIDAN       CLOUDY    57  52  83 SE7       30.11S                  

BUFFALO WY     LGT RAIN  52  52 100 E5          N/A  FOG              

CODY           RAIN      53  51  93 CALM      30.07F                  

YELLOWSTONE LA   N/A     45  43  93 CALM      30.13F                  

IDAHO FALLS    CLOUDY    50  50 100 S13       29.94S                  

SALMON         HVY RAIN  53  52  96 CALM      29.95R FOG              

BOISE          CLOUDY    57  52  83 SE5       29.88S                  

SPOKANE        MOCLDY    66  42  41 NE9       29.93S                  

--------------------------------



REGIONAL REPORTS...ALBERTA

  

CITY           SKY/WX    TMP DP  RH WIND       PRES   REMARKS

CALGARY        CLEAR     54  43  66 S7        30.13R                  

CARDSTON         N/A     46  45  93 NW1         N/A                   

EDMONTON       CLEAR     59  45  58 S7        30.05R                  

FORT MCMURRAY  MOCLDY    68  43  40 SW13      29.95R                  

HIGH LEVEL     CLEAR     59  50  72 CALM      29.90R                  

LETHBRIDGE     CLOUDY    55  50  82 E2        30.11F                  

LLOYDMINSTER   CLEAR     55  45  67 S5        30.10S                  

MEDICINE HAT   CLEAR     55  45  67 VRB2      30.10S                  

MILK RIVER       N/A     48  46  93 W2          N/A                   

ONEFOUR          N/A     52  43  71 NE7         N/A                   

PEACE RIVER    MOCLDY    59  54  82 N5        29.97R                  

PINCHER CREEK  PTCLDY    46  43  87 W9        30.14S                  

--------------------------------



REGIONAL REPORTS...SASKATCHEWAN

  

CITY           SKY/WX    TMP DP  RH WIND       PRES   REMARKS

CORONACH         N/A     50  48  93 NW1         N/A                   

CYPRESS HILLS    N/A     52  36  54 E3          N/A                   

ESTEVAN        PTCLDY    52  50  93 N5        30.11S                  

MOOSE JAW        N/A     48  43  81 N1          N/A                   

PRINCE ALBERT  PTCLDY    50  43  76 CALM      30.11R                  

REGINA         CLEAR     55  46  71 VRB2      30.14R                  

SASKATOON      CLEAR     59  45  58 S5        30.13R                  

SWIFT CURRENT  CLEAR     50  39  66 S7        30.13S                  

VAL MARIE        N/A     61  45  55 E6          N/A                   

--------------------------------